[[{"header":{"parameterUnit":"m.s-1","parameterCategory":1,"la1":30.2991,"la2":30.254,"lo1":-89.0895,"lo2":-89.0444,"dy":0.0017,"dx":0.0017,"nx":28,"ny":28,"refTime":"2024-06-03T21:00:00:Z","depth":0,"parameterNumber":2,"parameterNumberName":"U-component_of_WINDS"},"data":[0,0,0,0,0,0,0,0,0,0,0,0,0,0,0,0,0,0,0,0,0,0,0,0,0,0,0,0,0,0,0,0,0,0,0,0,0,0,0,0,0,0,0,0,0,0,0,0,0,0,0,0,0,0,0,0,0,0,-1.7145,-1.7146,0,-1.726,-1.7261,-1.7263,-1.7319,-1.7319,-1.7319,-1.7319,-1.7438,-1.7442,-1.7445,0,0,0,0,0,0,0,0,0,0,0,0,0,-1.6976,-1.6979,-1.7145,-1.7146,-1.7148,-1.726,-1.7261,-1.7263,-1.7319,-1.7319,-1.7319,-1.7319,-1.7437,-1.7441,-1.7445,0,0,0,0,0,0,0,0,0,0,0,0,0,-1.7066,-1.6979,-1.7145,-1.7189,-1.7195,-1.7259,-1.7261,-1.7263,-1.7319,-1.7319,-1.7319,-1.7319,-1.7436,-1.7441,-1.7445,-1.7475,0,0,-1.746,-1.7462,0,0,0,0,0,0,0,0,-1.7061,-1.7072,-1.7181,-1.7186,-1.7192,-1.7275,-1.7245,-1.7334,-1.7319,-1.7272,-1.7319,-1.7319,-1.7384,-1.7393,-1.7415,-1.7481,-1.7486,-1.746,-1.7463,-1.7465,-1.7467,0,0,0,0,0,0,0,-1.7054,-1.7067,-1.719,-1.7183,-1.719,-1.7204,-1.7217,-1.7262,-1.7327,-1.7276,-1.728,-1.7293,-1.7387,-1.741,-1.7418,-1.7487,-1.746,-1.7465,-1.7467,-1.7469,-1.7584,-1.7584,0,0,0,0,0,0,-1.7041,-1.7062,-1.7187,-1.7194,-1.7125,-1.7207,-1.7222,-1.7249,-1.7326,-1.7338,-1.7293,-1.7295,-1.7402,-1.7412,-1.7423,-1.7463,-1.7465,-1.747,-1.7473,-1.7583,-1.7584,-1.7584,0,0,0,0,0,0,-1.7037,-1.7051,-1.7182,-1.7129,-1.7147,-1.721,-1.724,-1.7251,-1.7274,-1.7339,-1.7351,-1.7305,-1.7402,-1.7416,-1.7462,-1.7467,-1.7472,-1.7476,-1.7583,-1.7584,-1.7584,-1.7542,0,0,0,0,0,0,-1.7032,-1.7049,-1.7061,-1.7129,-1.7149,-1.7219,-1.724,-1.7253,-1.7282,-1.7286,-1.7353,-1.7364,-1.7403,-1.7454,-1.7466,-1.7474,-1.748,-1.7583,-1.7583,-1.7584,-1.7543,-1.7541,-1.7539,0,0,0,0,0,-1.7025,-1.7045,-1.7061,-1.7076,-1.7165,-1.7219,-1.7231,-1.7275,-1.7282,-1.7294,-1.7336,-1.7362,-1.7465,-1.7458,-1.7472,-1.7482,-1.7583,-1.7583,-1.7584,-1.7544,-1.7542,-1.7539,0,0,0,0,0,0,-1.6976,-1.7055,-1.7074,-1.7116,-1.716,-1.7228,-1.7245,-1.727,-1.7314,-1.7316,-1.737,-1.7384,-1.7425,-1.7458,-1.745,-1.7515,-1.7526,-1.753,-1.7492,-1.749,-1.7487,-1.7479,-1.7484,0,0,0,0,0,-1.697,-1.7007,-1.7074,-1.7104,-1.7126,-1.7181,-1.7206,-1.7237,-1.7285,-1.7304,-1.735,-1.7396,-1.7439,-1.7466,-1.7509,-1.7548,-1.7564,-1.7562,-1.756,-1.7558,-1.756,-1.7584,-1.7584,-1.7585,-1.7585,-1.7585,0,0,-1.6959,-1.7006,-1.7026,-1.7096,-1.7134,-1.7171,-1.7197,-1.7235,-1.7264,-1.731,-1.7356,-1.7391,-1.7447,-1.7489,-1.751,-1.7518,-1.7563,-1.7558,-1.7556,-1.756,-1.7584,-1.7584,-1.7584,-1.7586,-1.7585,-1.7585,0,0,-1.6956,-1.6995,-1.7025,-1.7063,-1.712,-1.7157,-1.7164,-1.7229,-1.7253,-1.73,-1.7336,-1.7371,-1.7443,-1.7482,-1.751,-1.7522,-1.7548,-1.7535,-1.7524,-1.7546,-1.7546,-1.7547,-1.7551,-1.7552,-1.7537,-1.7537,-1.7537,0,-1.6934,-1.6991,-1.7038,-1.7074,-1.7104,-1.7147,-1.7178,-1.7213,-1.7281,-1.7301,-1.7308,-1.74,-1.7441,-1.7493,-1.7496,-1.7518,-1.7528,-1.7528,-1.7542,-1.7543,-1.7544,-1.7549,-1.7551,-1.7535,-1.7535,-1.7535,-1.7535,0,-1.6962,-1.7001,-1.7018,-1.7083,-1.7115,-1.7148,-1.72,-1.7227,-1.7254,-1.729,-1.7338,-1.7388,-1.7442,-1.7456,-1.7484,-1.7513,-1.7516,-1.7532,-1.7545,-1.7541,-1.7547,-1.7549,-1.7532,-1.7533,-1.7533,-1.7534,0,0,-1.6932,-1.7021,-1.7027,-1.7057,-1.7123,-1.7155,-1.719,-1.7243,-1.7265,-1.731,-1.7342,-1.7402,-1.7418,-1.7451,-1.7483,-1.7502,-1.7509,-1.7517,-1.7519,-1.7514,-1.7545,-1.7533,-1.7534,-1.7527,-1.7527,-1.7528,-1.7541,0,-1.6939,-1.7004,-1.7047,-1.7096,-1.7132,-1.7175,-1.7206,-1.725,-1.7285,-1.7322,-1.7361,-1.7403,-1.742,-1.744,-1.7462,-1.7504,-1.7516,-1.7503,-1.7557,-1.7559,-1.7542,-1.7537,-1.7524,-1.7534,-1.7543,-1.7544,-1.7544,0,-1.6956,-1.7,-1.7052,-1.7114,-1.7131,-1.7159,-1.721,-1.7245,-1.7296,-1.732,-1.7357,-1.7389,-1.7429,-1.7438,-1.7495,-1.7485,-1.751,-1.7534,-1.7535,-1.7542,-1.7551,-1.7545,-1.7539,-1.754,-1.7548,-1.7548,-1.7547,0,-1.6929,-1.7001,-1.7042,-1.7066,-1.714,-1.7158,-1.719,-1.7241,-1.727,-1.7315,-1.7335,-1.7384,-1.7411,-1.7449,-1.7495,-1.7497,-1.7547,-1.756,-1.7569,-1.7567,-1.7577,-1.7576,-1.7575,-1.7592,-1.7592,-1.7592,-1.7592,0,-1.6932,-1.6962,-1.7031,-1.7056,-1.7091,-1.714,-1.7174,-1.721,-1.7255,-1.7288,-1.7328,-1.7358,-1.7416,-1.7454,-1.7489,-1.7531,-1.7543,-1.7564,-1.7573,-1.7561,-1.7558,-1.7578,-1.7578,-1.7593,-1.7593,-1.7593,-1.7592,0,-1.6908,-1.6955,-1.7002,-1.7068,-1.7085,-1.7109,-1.7165,-1.7192,-1.7229,-1.727,-1.7283,-1.7341,-1.7388,-1.7437,-1.75,-1.7524,-1.7564,-1.7577,-1.7547,-1.7552,-1.7558,-1.7557,-1.7571,-1.7575,-1.7588,-1.7588,-1.7588,0,-1.6907,-1.6931,-1.7,-1.7024,-1.7055,-1.7094,-1.7124,-1.7174,-1.7203,-1.7263,-1.7282,-1.7332,-1.7374,-1.7446,-1.7495,-1.7544,-1.7558,-1.756,-1.7566,-1.7553,-1.7559,-1.7557,-1.756,-1.7557,-1.7557,-1.7557,-1.7556,0,-1.69,-1.6923,-1.6963,-1.7012,-1.7046,-1.7088,-1.713,-1.7149,-1.7207,-1.7238,-1.7285,-1.7318,-1.7382,-1.7431,-1.7486,-1.752,-1.7548,-1.7554,-1.7559,-1.7546,-1.7528,-1.7538,-1.7541,-1.7554,-1.7554,-1.7554,-1.7554,-1.7554,-1.6888,-1.6912,-1.6964,-1.7008,-1.7045,-1.7085,-1.7112,-1.7153,-1.7193,-1.7249,-1.7276,-1.7324,-1.7376,-1.7452,-1.7485,-1.7524,-1.7532,-1.7539,-1.7541,-1.7542,-1.7539,-1.7521,-1.7534,-1.7534,-1.7534,-1.7534,-1.7535,0,-1.6884,-1.692,-1.696,-1.7018,-1.7053,-1.7076,-1.7125,-1.7153,-1.7194,-1.724,-1.728,-1.7335,-1.7383,-1.7435,-1.7486,-1.7507,-1.7522,-1.7519,-1.7518,-1.7526,-1.7528,-1.7519,-1.7507,-1.7507,-1.7507,-1.7507,-1.7507,-1.7507,-1.6886,-1.6927,-1.6956,-1.7016,-1.7052,-1.7098,-1.7124,-1.7161,-1.7197,-1.7257,-1.7297,-1.733,-1.7379,-1.7434,-1.7479,-1.7493,-1.751,-1.7504,-1.7522,-1.7523,-1.7525,-1.7527,-1.7519,-1.7507,-1.7507,-1.7516,-1.7516,-1.7516]},{"header":{"parameterUnit":"m.s-1","parameterCategory":1,"la1":30.2991,"la2":30.254,"lo1":-89.0895,"lo2":-89.0444,"dy":0.0017,"dx":0.0017,"nx":28,"ny":28,"refTime":"2024-06-03T21:00:00:Z","depth":0,"parameterNumber":3,"parameterNumberName":"V-component_of_WINDS"},"data":[0,0,0,0,0,0,0,0,0,0,0,0,0,0,0,0,0,0,0,0,0,0,0,0,0,0,0,0,0,0,0,0,0,0,0,0,0,0,0,0,0,0,0,0,0,0,0,0,0,0,0,0,0,0,0,0,0,0,2.8167,2.8167,0,2.8157,2.8157,2.8157,2.8182,2.8182,2.8183,2.8184,2.8169,2.8168,2.8167,0,0,0,0,0,0,0,0,0,0,0,0,0,2.8202,2.8201,2.8167,2.8167,2.8166,2.8157,2.8157,2.8157,2.8181,2.8182,2.8183,2.8184,2.817,2.8168,2.8167,0,0,0,0,0,0,0,0,0,0,0,0,0,2.8189,2.8201,2.8167,2.8178,2.8179,2.8157,2.8157,2.8157,2.8181,2.8182,2.8184,2.8185,2.817,2.8168,2.8167,2.8133,0,0,2.8162,2.8161,0,0,0,0,0,0,0,0,2.819,2.8188,2.8176,2.8177,2.8178,2.8172,2.8164,2.8149,2.8181,2.818,2.8184,2.8185,2.8169,2.8167,2.8163,2.8132,2.8132,2.8162,2.8161,2.816,2.8159,0,0,0,0,0,0,0,2.819,2.8188,2.8163,2.8176,2.8177,2.8182,2.8181,2.8162,2.8168,2.818,2.8182,2.8181,2.817,2.8164,2.8163,2.8132,2.8162,2.816,2.8159,2.8158,2.8074,2.8073,0,0,0,0,0,0,2.8191,2.8189,2.8163,2.8163,2.8187,2.818,2.818,2.8172,2.8168,2.8169,2.818,2.8182,2.8167,2.8165,2.8162,2.8123,2.816,2.8158,2.8157,2.8075,2.8074,2.8072,0,0,0,0,0,0,2.8191,2.8188,2.8163,2.8176,2.8173,2.8178,2.817,2.8172,2.8167,2.8168,2.8169,2.8174,2.8168,2.8165,2.8141,2.8123,2.8158,2.8156,2.8076,2.8075,2.8073,2.8044,0,0,0,0,0,0,2.8192,2.8188,2.8176,2.8176,2.8173,2.8143,2.8169,2.8171,2.8164,2.8167,2.8162,2.8163,2.8168,2.8143,2.8139,2.8121,2.8155,2.8078,2.8076,2.8073,2.8046,2.8041,2.8036,0,0,0,0,0,2.8193,2.8167,2.8175,2.8172,2.8158,2.8142,2.814,2.8148,2.8163,2.815,2.8151,2.8163,2.8126,2.814,2.8136,2.8117,2.8079,2.8076,2.8074,2.8048,2.8042,2.8037,0,0,0,0,0,0,2.8163,2.8167,2.8176,2.8149,2.8145,2.8146,2.813,2.8141,2.8132,2.8134,2.8144,2.8142,2.8117,2.8115,2.8131,2.8085,2.8105,2.8101,2.8087,2.8081,2.8076,2.8077,2.8153,0,0,0,0,0,2.8154,2.8142,2.8145,2.8121,2.8119,2.8125,2.8118,2.8125,2.8121,2.8119,2.8118,2.8112,2.8099,2.809,2.8078,2.8046,2.8046,2.8031,2.8027,2.8023,2.8019,2.8002,2.7996,2.8063,2.8063,2.8063,0,0,2.8133,2.8134,2.8125,2.8115,2.8113,2.8099,2.8123,2.8107,2.8097,2.8116,2.8094,2.8093,2.8087,2.8059,2.8047,2.8057,2.8001,2.8019,2.8016,2.8014,2.7999,2.7992,2.7987,2.8061,2.8061,2.8062,0,0,2.8089,2.8088,2.8069,2.8066,2.8063,2.8068,2.8063,2.8063,2.8064,2.8042,2.8056,2.8044,2.8021,2.8016,2.8011,2.7967,2.7977,2.7963,2.7937,2.7921,2.7915,2.7911,2.7895,2.7889,2.7959,2.7959,2.7959,0,2.8063,2.8044,2.8056,2.804,2.8035,2.8054,2.8033,2.803,2.8023,2.8018,2.803,2.8003,2.8,2.7972,2.7962,2.7957,2.7951,2.7963,2.7916,2.7911,2.7907,2.7892,2.7886,2.7957,2.7957,2.7958,2.7958,0,2.8013,2.8,2.7984,2.7979,2.7972,2.7953,2.7962,2.7953,2.7961,2.7965,2.7942,2.794,2.7928,2.7922,2.7929,2.7895,2.7902,2.7914,2.7934,2.7898,2.7884,2.7879,2.7955,2.7955,2.7956,2.7956,0,0,2.7947,2.7951,2.7945,2.7943,2.7942,2.7931,2.7914,2.7904,2.7897,2.7891,2.7876,2.7858,2.787,2.7864,2.7871,2.7857,2.7822,2.7871,2.7871,2.7862,2.7784,2.7774,2.7767,2.783,2.7828,2.7828,2.7785,0,2.7904,2.7876,2.7887,2.7857,2.7845,2.7863,2.7848,2.7845,2.7848,2.7837,2.784,2.7827,2.7844,2.7841,2.7828,2.7829,2.7806,2.7832,2.7814,2.7814,2.7815,2.776,2.7749,2.7709,2.7779,2.7778,2.7778,0,2.7849,2.7843,2.7813,2.7815,2.781,2.7797,2.7789,2.7779,2.7776,2.7779,2.7774,2.7784,2.7766,2.7787,2.7762,2.778,2.7773,2.7773,2.7772,2.777,2.7793,2.7756,2.7696,2.769,2.7769,2.777,2.777,0,2.7804,2.7789,2.7769,2.7767,2.7769,2.7759,2.7759,2.7757,2.7751,2.7745,2.7741,2.7731,2.7726,2.7718,2.7725,2.774,2.7699,2.7721,2.77,2.77,2.769,2.769,2.7628,2.7687,2.7687,2.7687,2.7687,0,2.7753,2.7734,2.7749,2.7736,2.7715,2.7728,2.7706,2.7708,2.7707,2.7695,2.771,2.7698,2.7708,2.7697,2.7702,2.7681,2.7678,2.768,2.7681,2.7678,2.7678,2.7673,2.7676,2.7685,2.7686,2.7686,2.7686,0,2.7699,2.7708,2.7688,2.7693,2.7693,2.7677,2.7681,2.7669,2.7674,2.7658,2.7655,2.7662,2.7649,2.7656,2.7642,2.7646,2.7619,2.7624,2.762,2.7621,2.76,2.7602,2.7532,2.7523,2.7588,2.7588,2.7587,0,2.7666,2.7652,2.7655,2.7649,2.7649,2.7638,2.7633,2.7645,2.7639,2.7635,2.7624,2.7613,2.7605,2.7584,2.7587,2.7577,2.7582,2.7558,2.758,2.7578,2.7581,2.7582,2.758,2.7553,2.7552,2.7552,2.7551,0,2.7606,2.7612,2.7604,2.7599,2.7592,2.7588,2.7584,2.7578,2.759,2.7582,2.7571,2.7565,2.7552,2.7541,2.7533,2.7532,2.7543,2.7545,2.7539,2.7535,2.7534,2.7534,2.7607,2.7546,2.7546,2.7547,2.7547,2.7547,2.7561,2.755,2.7551,2.7542,2.7541,2.7538,2.7528,2.7532,2.7524,2.7515,2.7523,2.7509,2.7507,2.7498,2.7495,2.7484,2.7493,2.7486,2.7484,2.7481,2.7479,2.7536,2.7482,2.7483,2.7483,2.7483,2.7483,0,2.7502,2.7504,2.7496,2.7492,2.7485,2.7499,2.7496,2.7489,2.7477,2.7475,2.7468,2.7455,2.7445,2.7448,2.7438,2.7429,2.7434,2.7426,2.7426,2.7426,2.7471,2.7476,2.7422,2.7422,2.7422,2.7422,2.7422,2.7422,2.747,2.7452,2.7458,2.7439,2.7441,2.7429,2.7427,2.7424,2.7423,2.7408,2.74,2.7403,2.7403,2.7394,2.7385,2.7386,2.7382,2.7372,2.7375,2.7416,2.7422,2.7428,2.7433,2.7371,2.7371,2.733,2.733,2.733]}]]